{"data":{"norad_id":57154,"intl_designator":"2023-090BF","name":"STARLINK-6106","alt_names":[],"object_type":"PAYLOAD","status":"ACTIVE","operator":null,"country":"US","launch_date":"2023-06-23","launch_site_code":"AFETR","launch_vehicle":null,"mission":null,"orbit_class":"UNKNOWN","rcs_meters":null,"size_class":null,"mass_kg":null,"dimensions":null,"purposes":["comms"],"wikipedia_slug":null,"has_3d_model":false,"image_url":null,"decayed_at":null,"tle_current":{"epoch":"2026-05-25T03:25:56.279136Z","epoch_age_seconds":60010,"freshness":"FRESH","line1":"1 57154U 23090BF  26145.14301249  .00001927  00000+0  79560-4 0  9997","line2":"2 57154  43.0018 191.7578 0001186 272.6628  87.4088 15.27570288162231","mean_motion":15.27570288,"eccentricity":0.0001186,"inclination_deg":43.0018,"raan_deg":191.7578,"arg_perigee_deg":272.6628,"mean_anomaly_deg":87.4088,"bstar":7.956e-5,"rev_number":16223,"period_min":94.267348043627,"perigee_km":482.26443729556,"apogee_km":483.89191753565,"semimajor_km":6861.2151774156,"source":"CELESTRAK","updated_at":"2026-05-25T13:38:18.250748Z"}}}